Plattsburgh, NY

1:21 PM EDT on June 25, 2017 (GMT -0400)
Plattsburgh International

Weather History for KPBG - March, 2014

Change the Weather History Date:

Saturday, March 29, 2014

  Actual Average Record
Temperature  
Mean Temperature 37 °F 35 °F  
Max Temperature 42 °F 45 °F 75 °F (1981)
Min Temperature 32 °F 25 °F -2 °F (1974)
Degree Days  
Heating Degree Days 28 30  
Month to date heating degree days 1285 1011  
Since 1 July heating degree days 7128 6623  
Cooling Degree Days 0 0  
Month to date cooling degree days 0 0  
Year to date cooling degree days 0 0  
Moisture  
Dew Point 29 °F    
Average Humidity 75    
Maximum Humidity 85    
Minimum Humidity 64    
Precipitation  
Precipitation 0.01 in - 0.50 in (1965)
Month to date precipitation 0.27  
Year to date precipitation 1.53  
Sea Level Pressure  
Sea Level Pressure 30.22 in    
Wind  
Wind Speed 11 mph (North)    
Max Wind Speed 18 mph    
Max Gust Speed 23 mph    
Visibility 10 miles    
Events Rain    
T = Trace of Precipitation, MM = Missing Value Source: NWS Daily Summary

Daily Weather History Graph

Daily Weather History Graph

Search for Another Location

Airport or City:

Trip Planner

Search our weather history database for the weather conditions in past years. The results will help you decide how hot, cold, wet, or windy it might be!

Date:

Astronomy

Mar. 29, 2014 Rise Set
Actual Time 6:40 AM EDT 7:17 PM EDT
Civil Twilight 6:11 AM EDT 7:47 PM EDT
Nautical Twilight 5:36 AM EDT 8:21 PM EDT
Astronomical Twilight 5:00 AM EDT 8:58 PM EDT
Moon 5:50 AM EDT (3/29) 6:18 PM EDT (3/29)
Length of Visible Light 13h 36m
Length of Day
12h 37m
Waning Crescent, 2% of the Moon is Illuminated
Mar 29
Waning Crescent
Mar 30
New
Apr 7
First Quarter
Apr 15
Full
Apr 22
Last Quarter

Hourly Weather History & Observations

Time (EDT) Temp. Windchill Dew Point Humidity Pressure Visibility Wind Dir Wind Speed Gust Speed Precip Events Conditions
12:53 AM 42.1 °F 35.7 °F 37.0 °F 82% 30.09 in 10.0 mi NNW 11.5 mph - N/A   Overcast
1:53 AM 41.0 °F 34.7 °F 35.1 °F 79% 30.14 in 10.0 mi NNW 10.4 mph - N/A   Overcast
2:53 AM 37.0 °F 29.8 °F 33.1 °F 86% 30.17 in 10.0 mi NNW 10.4 mph - N/A   Overcast
3:12 AM 37.9 °F 30.9 °F 34.0 °F 86% 30.16 in 10.0 mi NNW 10.4 mph - 0.00 in Rain Light Rain
3:53 AM 37.0 °F 31.6 °F 34.0 °F 89% 30.19 in 10.0 mi NNW 6.9 mph - 0.00 in   Overcast
4:53 AM 37.0 °F 34.5 °F 33.1 °F 86% 30.21 in 10.0 mi West 3.5 mph - N/A   Overcast
5:53 AM 37.0 °F 31.6 °F 32.0 °F 82% 30.23 in 10.0 mi NW 6.9 mph - N/A   Overcast
6:53 AM 37.0 °F 30.4 °F 30.0 °F 76% 30.27 in 10.0 mi NNW 9.2 mph - N/A   Overcast
7:53 AM 36.0 °F 32.1 °F 30.9 °F 82% 30.28 in 10.0 mi NNE 4.6 mph - N/A   Overcast
8:53 AM 37.0 °F 32.4 °F 30.9 °F 79% 30.30 in 10.0 mi NNE 5.8 mph - N/A   Overcast
9:53 AM 37.0 °F 28.9 °F 30.0 °F 76% 30.32 in 10.0 mi NNE 12.7 mph - N/A   Overcast
10:07 AM 36.0 °F 26.7 °F 30.0 °F 79% 30.30 in 10.0 mi North 15.0 mph - N/A   Overcast
10:21 AM 36.0 °F 27.1 °F 28.9 °F 76% 30.29 in 10.0 mi North 13.8 mph - N/A   Overcast
10:53 AM 36.0 °F 27.5 °F 27.0 °F 70% 30.31 in 10.0 mi North 12.7 mph - N/A   Overcast
11:31 AM 36.0 °F 28.5 °F 27.0 °F 70% 30.29 in 10.0 mi North 10.4 mph - N/A   Overcast
11:53 AM 36.0 °F 28.0 °F 27.0 °F 70% 30.30 in 10.0 mi NNE 11.5 mph - N/A   Overcast
12:53 PM 37.0 °F 30.4 °F 28.0 °F 70% 30.29 in 10.0 mi North 9.2 mph - N/A   Overcast
1:53 PM 37.0 °F 29.8 °F 28.0 °F 70% 30.27 in 10.0 mi North 10.4 mph - N/A   Overcast
2:53 PM 37.0 °F 28.9 °F 28.0 °F 70% 30.26 in 10.0 mi North 12.7 mph - N/A   Overcast
3:53 PM 37.0 °F 28.5 °F 27.0 °F 67% 30.23 in 10.0 mi North 13.8 mph - N/A   Overcast
4:53 PM 36.0 °F 27.1 °F 27.0 °F 70% 30.21 in 10.0 mi North 13.8 mph - N/A   Overcast
5:53 PM 36.0 °F 26.3 °F 26.1 °F 67% 30.19 in 10.0 mi North 16.1 mph - N/A   Overcast
6:53 PM 35.1 °F 26.4 °F 26.1 °F 70% 30.19 in 10.0 mi North 12.7 mph - N/A   Overcast
7:53 PM 34.0 °F 24.6 °F 26.1 °F 73% 30.18 in 10.0 mi North 13.8 mph - N/A   Overcast
8:53 PM 34.0 °F 24.6 °F 26.1 °F 73% 30.16 in 10.0 mi North 13.8 mph - N/A   Overcast
9:53 PM 34.0 °F 24.2 °F 26.1 °F 73% 30.13 in 10.0 mi North 15.0 mph - N/A   Overcast
10:53 PM 34.0 °F 25.0 °F 27.0 °F 75% 30.09 in 10.0 mi North 12.7 mph - N/A   Overcast
11:53 PM 34.0 °F 24.6 °F 27.0 °F 75% 30.07 in 10.0 mi North 13.8 mph - N/A   Overcast